Location: San Antonio
(29.4240°N, 98.4930°W)
Time: 00:02:22
(UTC-05:00)

DUCHIFAT 1 - Pass Details

Date: 12 August 2024
Orbit: 522 x 542 km, 98.1° (Epoch: 15 September)

Event Time Altitude Azimuth Distance (km) Brightness Sun altitude
Rises 05:49:41 0° 28° (NNE) 2,715 ? -15.2°
Reaches altitude 10° 05:52:08 10° 43° (NE) 1,813 ? -14.7°
Maximum altitude 05:55:20 24° 97° (E) 1,152 ? -14.1°
Drops below altitude 10° 05:58:29 10° 152° (SSE) 1,790 ? -13.5°
Sets 06:00:53 0° 167° (SSE) 2,670 ? -13.0°
